"Pseudo-MPEC" for XW99CEC

Created 2016 Nov 19 19:13:55 UT using Find_Orb

Further data from (H01) Magdalena Ridge and from (G96) Mt. Lemmon made it very clear that this object is in a two-day orbit and made four orbits between the first and second sets of observations. The link between those arcs is quite rough. Either the object is very light (like a piece of Mylar) and has some really serious non-gravs, or it's an active satellite.

The latter is a little difficult to believe. Not much is in two-day orbits. The main candidates are XMM-Newton (1999-066) and Vela 4a (1967-040). Except that it's not either of those objects, nor a catalogued piece of those objects. It's unlikely that uncatalogued bits would still be maneuvering. So a light bit of trash from one of those launches seems like the best candidate to me.

For customized ephemerides, cut-and-paste the 2016 November 19 observations shown below (you can leave out the November 11 arc) and put them into the big text box in the on-line version of Find_Orb, and set up your observatory code, time span, and so on.

Astrometry:
     XV902A4  C2016 11 11.38964 04 28 16.69 +10 49 46.9         x19.3 VqNEOCPG96
     XV902A4  C2016 11 11.39397 04 28 43.37 +10 52 03.2         x18.7 VqNEOCPG96
     XV902A4  C2016 11 11.39825 04 29 09.79 +10 54 16.1         x18.3 VqNEOCPG96
     XV902A4  C2016 11 11.40277 04 29 37.64 +10 56 33.5         x18.3 VqNEOCPG96
     XV902A4  C2016 11 11.44967 04 34 57.96 +11 19 44.5         x            G96
     XV902A4  C2016 11 11.44991 04 34 59.85 +11 19 51.8         x18.1 V      G96
     XV902A4  C2016 11 11.45015 04 35 01.55 +11 19 58.3         x            G96
     XV902A4  C2016 11 11.45039 04 35 03.37 +11 20 05.1         x18.4 V      G96
     XW99CEC  C2016 11 19.43356 03 54 56.57 +09 05 53.2          18.1 V D0552G96
     XW99CEC  C2016 11 19.43372 03 54 57.37 +09 05 57.1          18.2 V D0552G96
     XW99CEC  C2016 11 19.43388 03 54 58.13 +09 06 01.1          18.3 V D0552G96
     XW99CEC  C2016 11 19.43405 03 54 58.97 +09 06 04.7          18.2 V D0552G96
     XW99CEC  C2016 11 19.45396 03 56 40.74 +09 13 52.1          18.0 V D0552G96
     XW99CEC  C2016 11 19.45414 03 56 41.72 +09 13 56.3          18.1 V D0552G96
     XW99CEC  C2016 11 19.45431 03 56 42.58 +09 14 00.2          18.2 V D0552G96
     XW99CEC  C2016 11 19.45956803 56 57.82 +09 10 25.0          17.8 V D0552H01
     XW99CEC  C2016 11 19.46247103 57 14.19 +09 11 29.9          18.1 V D0552H01
     XW99CEC  C2016 11 19.46902603 57 51.81 +09 13 54.9          17.7 V D0552H01
     XW99CEC  C2016 11 19.47892 03 58 58.59 +09 23 08.9          18.1 V D0552G96
     XW99CEC  C2016 11 19.47908 03 58 59.55 +09 23 12.5          18.1 V D0552G96
     XW99CEC  C2016 11 19.47925 03 59 00.48 +09 23 16.1          18.0 V D0552G96
     XW99CEC  C2016 11 19.47941 03 59 01.38 +09 23 19.7          18.1 V D0552G96
     XW99CEC KC2016 11 19.47953 03 59 03.64 +09 25 02.2          18.3 R D0552291
     XW99CEC  C2016 11 19.47993303 58 56.27 +09 17 52.4          17.8 V D0552H01
     XW99CEC KC2016 11 19.48010 03 59 06.90 +09 25 14.7          18.3 R D0552291
     XW99CEC KC2016 11 19.48070 03 59 10.38 +09 25 28.0          18.2 R D0552291
     XW99CEC  C2016 11 19.49818 04 00 53.43 +09 29 58.7                 D0552G96
     XW99CEC  C2016 11 19.49834 04 00 54.48 +09 30 02.2          18.2 V D0552G96
     XW99CEC  C2016 11 19.49851 04 00 55.48 +09 30 05.8          18.1 V D0552G96
     XW99CEC  C2016 11 19.49870 04 00 56.73 +09 30 09.9          18.3 V D0552G96

Station data:
(291) LPL/Spacewatch II (N31.961626 W111.599100)  US/Arizona.  1.8-m f/2.7
    reflector + CCD.
(G96) Mt. Lemmon Survey (N32.442751 W110.788720)  US/Arizona.   Observers E.
    J. Christensen, A. R. Gibbs, A. D. Grauer, R. E. Hill, J. A. Johnson, R. A.
    Kowalski, S. M. Larson, F. C. Shelly.  1.5-m reflector + CCD.
(H01) Magdalena Ridge Observatory, Socorro (N33.985148 W107.189200)  US/New Mexico.
      Observers W. H. Ryan, E. V. Ryan.  Measurer W. H. Ryan.  2.4-m f/8.9
    reflector + CCD.

Orbital elements:  XV902A4
   Perigee 2016 Nov 18.323245 +/- 0.00669 TT =  7:45:28 (JD 2457710.823245)
Epoch 2016 Nov 19.0 TT = JDT 2457711.5                        Find_Orb
M 116.874202 +/- 0.9                (J2000 equatorial)
n 172.697909557 +/- 0.301           Peri.  213.327817 +/- 0.12
a 68930.60957 +/- 80.1              Node    26.376258 +/- 0.044
e   0.80239288 +/- 0.000305         Incl.   18.052713 +/- 0.0031
P3001.72m/2.085d           H 33.0   G  0.15   U 11.9
q 13621.17907 +/- 36    Q 124240.0400 +/- 126
22 of 30 observations 2016 Nov. 19 (93.8 min); mean residual 0".290
Residuals in arcseconds: 
161111 G96(9720- 2473-)   161119 G96 .251- .203+    161119 G96 .030- .156-
161111 G96(9657- 2454-)   161119 G96 .249- .282-    161119 G96 .384- .026-
161111 G96(9598- 2437-)   161119 G96 .091- .193-    161119 291 .497- .129-
161111 G96(9539- 2420-)   161119 G96 .326+ .120-    161119 H01 .405+ .118+
161111 G96(8738- 2197-)   161119 G96 .258- .117-    161119 291 .582- 6.7m+
161111 G96(8732- 2195-)   161119 H01 .247+ .125+    161119 291 .060- .307+
161111 G96(8729- 2194-)   161119 H01 3.5m+ .083+    161119 G96 .460- .254-
161111 G96(8723- 2193-)   161119 H01 .291+ .104-    161119 G96 .471+ .092-
161119 G96 .040+ 4.2m-    161119 G96 .177+ .196-    161119 G96 .259- .039-
161119 G96 .194+ .049+    161119 G96 .726+ .068-    161119 G96 .871+ .099+

